Wind_Speed
21 22 23 24 24 24 24 24 24 24 25 26 26 26 28 29 29 29 29 27 29 34 35 34 36 34 33 33 31 28 31 30 36 33 33 23 17 22 23 18 17 19 20 20 19
14 15 15 16 16 16 16 15 16 17 19 20 21 22 25 27 26 26 28 28 31 36 36 37 37 35 37 37 37 36 41 42 36 30 30 26 22 23 29 24 19 19 14 17 14
10 10 10 10 11 11 10 9 8 9 11 13 14 15 19 22 21 24 23 26 30 34 38 40 39 40 41 40 42 43 49 39 37 31 27 27 30 27 31 34 27 21 22 22 20
9 9 8 6 6 6 7 7 8 10 12 14 13 14 14 15 10 19 23 22 21 30 37 41 41 43 47 48 46 47 50 45 39 37 33 30 30 38 36 39 36 32 27 26 26
7 5 5 6 7 9 10 11 12 15 17 19 18 18 15 13 13 20 22 23 26 25 31 40 43 42 47 50 47 51 51 49 45 42 39 35 39 39 46 41 40 44 43 31 32
4 4 6 8 10 12 14 15 17 18 20 21 21 20 22 17 10 12 16 21 25 29 33 33 38 39 46 50 49 50 50 54 49 46 44 41 42 42 52 43 42 42 41 37 36
6 6 8 9 11 14 16 17 17 19 21 21 22 19 19 14 18 18 12 11 19 29 31 34 34 36 43 45 48 51 47 38 47 51 49 43 50 59 50 46 45 40 41 43 45
8 9 10 12 14 16 18 19 19 20 21 20 20 18 12 15 19 20 20 15 16 22 32 33 38 38 38 37 34 37 40 43 52 51 52 43 57 64 51 52 50 50 49 54 53
12 13 14 16 18 19 21 22 20 21 19 18 14 18 12 18 17 18 17 16 15 20 24 26 33 41 37 35 28 28 40 40 39 44 40 29 60 57 58 56 58 59 53 51 50
13 14 16 17 19 19 20 22 21 21 19 18 10 8 16 13 17 16 19 19 17 18 25 23 27 38 44 28 40 31 32 36 35 28 31 38 61 47 37 37 52 53 53 50 51
14 14 17 19 20 21 20 19 20 16 20 16 13 10 13 17 18 19 21 20 18 18 21 22 23 33 31 30 32 27 10 32 27 22 28 38 49 48 49 51 53 55 54 53 55
15 15 17 18 20 23 22 22 21 20 18 14 8 11 16 25 28 18 19 22 18 15 19 20 25 25 20 21 27 30 28 15 14 23 26 25 37 38 44 54 58 59 57 52 51
18 18 19 19 21 21 21 23 23 23 20 7 8 13 16 24 21 13 20 23 22 18 17 23 26 17 19 25 26 26 32 33 17 16 20 19 35 39 45 46 47 49 50 49 49
20 19 19 20 21 19 21 22 23 23 9 3 7 9 21 22 8 19 17 21 21 18 13 22 26 23 21 17 25 28 17 18 27 24 24 12 17 23 26 44 52 52 48 46 45
23 19 19 19 18 16 20 22 21 16 4 8 7 14 18 15 20 17 15 21 23 18 16 26 21 17 21 18 13 26 24 16 11 15 19 29 21 41 25 40 45 43 43 41 38
22 20 18 17 14 16 20 20 18 4 4 6 10 20 19 15 18 17 15 16 20 20 20 33 29 26 25 17 13 14 19 24 23 19 19 28 17 45 35 40 42 38 32 30 31
22 20 17 14 14 16 17 16 7 4 8 8 19 23 17 19 22 15 18 15 12 13 15 18 19 27 29 23 18 12 16 12 14 17 19 11 19 43 5 2 13 14 10 11 4
23 20 18 16 15 17 15 12 5 7 14 16 21 22 17 20 21 22 19 15 9 15 24 6 6 9 18 29 25 21 22 14 16 14 21 20 16 18 18 24 16 17 8 11 15
21 19 18 15 17 16 13 5 3 11 12 16 22 14 17 12 21 20 17 7 9 15 11 10 4 6 8 17 22 21 19 27 7 7 15 19 29 32 16 6 5 7 12 13 13
18 19 14 16 18 14 14 10 8 8 12 13 10 11 14 15 15 12 13 7 12 11 14 10 9 6 4 6 11 16 16 19 18 6 8 11 25 16 6 20 16 11 13 13 16
17 16 12 15 14 13 14 12 16 8 11 11 15 13 16 15 11 14 9 16 6 16 15 15 7 6 9 6 10 7 12 14 17 17 3 3 3 9 9 11 7 2 6 12 11
18 12 15 13 13 17 19 17 18 7 11 15 11 12 14 15 18 16 12 12 17 21 20 15 8 11 13 12 14 11 7 12 14 22 19 14 6 9 16 15 10 5 5 4 11
21 12 15 9 12 17 18 19 11 10 9 10 10 12 15 20 16 12 17 19 18 20 12 14 5 10 10 4 4 8 11 9 10 14 17 15 10 14 12 2 6 10 15 12 12
23 14 15 10 17 17 18 13 14 10 11 10 17 12 17 23 20 19 31 21 20 16 13 13 14 15 13 11 12 13 12 13 11 16 22 27 34 32 22 22 7 12 16 18 5
24 16 15 13 14 16 17 14 14 11 12 18 15 17 18 30 29 29 22 25 24 24 24 20 20 18 20 22 20 22 24 19 19 22 20 23 38 35 29 32 31 12 16 17 11
23 22 20 12 13 16 12 14 13 12 19 17 18 22 22 26 27 33 28 28 34 27 19 18 27 15 16 20 22 26 27 27 26 25 28 30 43 39 45 38 35 22 19 15 16
24 22 22 18 13 15 13 15 14 19 12 19 16 21 24 23 28 30 31 28 27 26 25 26 18 11 18 11 11 19 29 31 29 26 25 33 41 36 33 35 36 27 18 14 13
Wind_Direction
279 279 282 285 286 287 288 287 287 285 282 281 279 277 273 269 266 264 261 253 245 246 242 241 239 238 235 233 233 238 238 241 245 243 241 231 223 213 198 174 146 144 147 155 158
292 291 291 292 294 298 299 301 299 295 290 287 288 289 284 280 275 269 264 255 247 243 241 240 237 237 236 234 231 229 236 244 248 249 252 242 227 212 211 202 173 161 174 177 182
320 314 311 310 315 319 321 324 325 322 319 315 315 307 296 288 287 274 263 253 244 241 239 239 236 234 235 234 231 233 237 249 252 253 251 250 239 241 228 216 200 198 200 205 219
321 323 327 346 11 11 1 355 351 340 338 339 346 341 334 312 289 260 257 253 248 241 235 236 237 235 237 236 236 237 241 239 245 247 246 245 246 238 237 223 221 217 225 213 222
343 7 25 31 15 3 358 351 345 341 339 342 346 350 347 333 299 291 287 272 255 244 238 234 233 232 238 242 238 240 244 245 242 245 243 242 239 248 235 230 231 234 234 238 248
8 20 13 0 355 350 348 344 345 342 339 339 341 346 349 349 353 325 301 284 267 252 242 237 236 233 238 238 239 242 245 247 247 246 244 245 240 244 238 244 240 239 239 246 255
349 348 346 340 337 335 335 335 338 334 334 336 340 345 345 356 347 339 328 300 281 269 253 242 240 237 235 238 239 242 241 244 243 244 246 246 246 237 243 247 253 244 247 248 256
325 322 325 327 327 329 330 329 330 328 331 331 334 341 341 343 341 328 323 320 292 275 266 250 245 244 239 238 234 242 246 244 242 243 244 239 246 236 241 249 253 253 257 259 260
320 318 317 322 324 327 328 325 327 328 330 331 327 341 3 350 341 335 319 312 301 293 285 274 250 242 242 238 242 235 238 236 244 240 239 226 246 249 242 246 249 252 254 256 260
319 312 312 319 320 322 327 323 325 329 332 330 323 341 334 350 336 328 318 316 313 284 284 285 263 244 239 221 225 233 242 245 245 238 234 233 248 247 244 245 248 252 256 259 261
329 316 314 318 318 322 327 324 322 335 331 324 315 332 336 336 332 329 325 314 308 296 267 278 245 239 237 234 236 245 271 249 248 234 232 237 248 251 253 248 251 254 257 261 263
334 326 317 320 321 326 329 332 336 331 330 299 293 322 320 330 329 329 328 331 325 311 264 259 254 252 248 241 241 242 244 252 237 225 230 238 247 245 246 252 253 256 258 260 262
327 324 321 324 325 325 329 336 337 332 330 264 294 323 327 331 328 319 329 325 318 315 272 253 261 261 260 243 239 240 241 240 242 220 235 259 257 249 248 253 255 255 257 257 260
331 325 323 325 327 326 333 335 335 331 325 271 315 332 326 329 309 315 319 311 308 304 298 261 260 259 249 248 235 239 240 239 239 247 248 226 271 250 249 253 255 257 259 259 260
337 329 322 324 323 322 329 335 332 329 301 321 327 331 325 337 325 331 328 309 302 284 272 268 266 250 247 244 244 239 231 225 233 241 249 249 269 268 259 262 257 254 259 264 268
339 337 328 323 321 323 327 331 327 319 262 311 318 330 337 335 337 325 321 322 308 285 282 272 262 253 245 240 247 235 227 230 240 245 247 244 240 272 257 261 270 270 273 268 262
343 341 337 330 324 325 324 329 311 228 310 302 323 332 337 340 342 334 331 340 317 320 312 303 266 244 243 238 244 231 210 191 212 219 238 242 219 240 164 215 245 195 191 170 314
343 343 337 330 326 329 327 326 240 281 311 314 327 331 331 333 335 336 333 326 323 329 332 279 335 241 231 222 220 229 204 210 213 212 236 219 232 241 259 251 270 260 227 264 259
343 342 332 326 325 332 334 321 284 312 313 318 327 325 332 323 327 330 327 309 329 344 345 310 329 320 236 224 223 224 215 211 286 233 224 204 242 253 241 239 257 215 231 240 236
346 339 331 328 326 332 335 335 315 310 306 324 309 307 306 315 322 328 327 297 318 324 338 314 305 306 268 281 228 225 216 198 214 223 207 214 233 231 192 221 234 266 267 250 255
349 342 333 329 331 333 339 327 324 303 301 318 309 290 301 313 307 316 289 308 304 309 325 322 284 283 292 243 273 260 244 206 226 231 279 270 172 187 164 161 154 352 276 260 249
352 355 342 333 335 330 329 321 316 304 288 312 313 313 304 302 298 296 283 305 293 312 311 316 291 295 285 275 235 224 244 223 237 226 240 277 269 99 142 129 137 128 47 324 200
353 355 349 341 340 337 329 323 312 312 320 301 300 304 299 315 296 291 295 311 307 297 283 298 293 311 309 286 4 230 240 243 248 249 247 242 244 198 171 229 68 66 34 39 161
348 353 351 348 339 339 336 335 340 338 329 316 301 306 305 314 312 297 304 302 300 280 249 286 264 253 257 285 304 296 274 256 252 248 244 239 257 241 263 272 253 344 22 25 75
341 338 343 331 343 343 330 332 332 331 309 313 307 316 296 309 303 300 296 296 290 281 265 262 263 253 262 270 273 276 273 263 255 249 248 251 253 256 270 267 276 294 327 350 16
332 336 343 337 335 338 340 334 331 324 311 319 312 310 300 294 301 299 301 295 295 291 282 276 252 242 256 265 269 273 268 263 260 256 250 251 259 259 265 272 280 277 293 324 356
332 332 337 344 339 334 343 332 326 318 320 323 321 314 311 315 310 310 301 295 274 273 274 274 212 233 260 276 277 272 260 258 259 256 250 247 257 265 271 271 275 273 279 311 342
Height
3113 3112 3111 3110 3109 3108 3107 3106 3105 3104 3103 3102 3102 3103 3103 3103 3105 3106 3108 3110 3113 3112 3114 3118 3121 3124 3126 3127 3129 3131 3130 3127 3127 3130 3134 3139 3142 3145 3146 3147 3147 3149 3150 3152 3154
3110 3109 3108 3107 3105 3104 3103 3102 3101 3099 3098 3097 3096 3096 3095 3095 3096 3096 3099 3101 3103 3103 3106 3110 3114 3116 3118 3119 3120 3121 3118 3119 3124 3128 3131 3137 3138 3140 3143 3143 3144 3146 3147 3149 3152
3108 3107 3106 3105 3103 3102 3100 3099 3097 3095 3093 3092 3093 3092 3090 3088 3089 3088 3090 3092 3094 3096 3099 3102 3106 3107 3109 3111 3110 3111 3106 3117 3118 3124 3127 3131 3133 3134 3135 3135 3138 3141 3143 3144 3146
3107 3106 3105 3104 3102 3101 3100 3098 3096 3094 3092 3091 3090 3088 3086 3084 3088 3082 3083 3085 3088 3088 3090 3093 3097 3099 3100 3100 3105 3104 3102 3107 3114 3117 3120 3124 3128 3125 3126 3129 3132 3134 3137 3139 3140
3106 3105 3104 3104 3102 3100 3098 3096 3094 3092 3089 3087 3086 3086 3084 3082 3080 3077 3078 3080 3081 3081 3082 3085 3088 3091 3090 3093 3098 3094 3098 3100 3106 3109 3112 3116 3116 3117 3116 3123 3125 3127 3129 3132 3134
3105 3105 3104 3103 3101 3098 3096 3094 3092 3089 3086 3084 3082 3080 3078 3077 3076 3076 3074 3073 3073 3073 3075 3076 3079 3082 3081 3084 3086 3089 3092 3092 3096 3100 3104 3107 3108 3110 3106 3114 3118 3120 3122 3125 3125
3105 3104 3103 3102 3100 3098 3095 3092 3090 3087 3084 3081 3079 3076 3074 3073 3069 3069 3069 3068 3066 3066 3069 3071 3073 3073 3074 3076 3077 3080 3082 3084 3083 3090 3093 3100 3099 3088 3103 3107 3107 3112 3113 3117 3118
3105 3103 3102 3100 3098 3095 3092 3090 3088 3084 3082 3079 3077 3075 3072 3070 3067 3064 3063 3063 3062 3060 3061 3065 3066 3066 3067 3069 3070 3072 3076 3075 3073 3080 3083 3091 3083 3082 3099 3097 3098 3102 3106 3108 3108
3103 3101 3099 3097 3095 3093 3090 3086 3084 3081 3079 3076 3074 3072 3069 3066 3064 3062 3059 3058 3056 3055 3054 3057 3059 3059 3063 3063 3066 3064 3059 3061 3068 3069 3078 3080 3068 3078 3088 3089 3088 3092 3095 3097 3098
3100 3098 3096 3094 3092 3091 3088 3084 3080 3077 3075 3072 3069 3070 3066 3064 3060 3057 3054 3053 3051 3051 3050 3051 3052 3050 3053 3054 3047 3054 3055 3059 3060 3067 3068 3070 3055 3071 3075 3077 3078 3083 3084 3086 3088
3098 3096 3094 3092 3089 3086 3086 3083 3081 3076 3070 3069 3066 3064 3061 3060 3058 3054 3051 3048 3046 3045 3046 3046 3046 3039 3048 3048 3052 3054 3052 3054 3057 3059 3062 3059 3054 3060 3066 3068 3068 3068 3072 3076 3077
3097 3094 3092 3089 3085 3082 3079 3077 3075 3073 3068 3063 3062 3060 3057 3054 3050 3051 3048 3045 3043 3042 3042 3043 3039 3041 3042 3043 3045 3048 3050 3050 3050 3052 3054 3055 3048 3051 3053 3054 3058 3061 3062 3064 3067
3095 3091 3088 3086 3082 3078 3075 3072 3068 3064 3062 3060 3059 3058 3055 3052 3047 3046 3044 3040 3038 3037 3038 3038 3034 3036 3036 3038 3040 3041 3042 3047 3048 3049 3049 3048 3041 3042 3043 3045 3048 3050 3052 3055 3057
3091 3088 3085 3082 3080 3074 3071 3068 3064 3060 3057 3059 3056 3054 3052 3049 3045 3043 3040 3039 3035 3033 3033 3030 3030 3031 3032 3032 3035 3035 3038 3040 3043 3048 3045 3045 3031 3033 3035 3035 3036 3040 3044 3046 3047
3087 3084 3081 3077 3075 3072 3070 3065 3062 3060 3058 3056 3053 3052 3049 3046 3042 3041 3038 3033 3031 3030 3031 3023 3025 3026 3027 3028 3029 3030 3035 3037 3039 3041 3043 3039 3038 3016 3029 3023 3028 3033 3036 3038 3039
3084 3081 3077 3075 3072 3070 3066 3063 3061 3061 3055 3053 3051 3048 3045 3043 3040 3035 3034 3031 3027 3023 3021 3015 3018 3019 3022 3023 3024 3027 3028 3032 3036 3038 3032 3033 3038 3005 3018 3017 3021 3027 3031 3031 3031
3082 3078 3074 3072 3070 3067 3064 3062 3061 3057 3055 3052 3049 3045 3042 3039 3036 3033 3030 3027 3025 3022 3017 3011 3006 3010 3014 3018 3020 3021 3024 3022 3027 3026 3019 3027 3031 3006 3008 3013 3014 3020 3022 3023 3024
3078 3075 3071 3069 3067 3065 3062 3061 3058 3054 3052 3050 3045 3043 3040 3036 3034 3030 3028 3026 3023 3020 3014 3007 3005 3005 3006 3009 3013 3015 3016 3014 3011 3009 3010 3024 3014 3006 3006 3012 3013 3015 3017 3017 3018
3076 3072 3069 3067 3064 3062 3060 3058 3055 3053 3050 3046 3043 3040 3038 3036 3034 3029 3027 3024 3022 3020 3018 3010 3006 3006 3005 3007 3010 3011 3010 3013 3013 3009 3008 3009 3006 3004 3004 3009 3010 3011 3011 3012 3012
3075 3070 3067 3064 3061 3059 3058 3055 3052 3050 3047 3045 3042 3040 3037 3035 3033 3030 3025 3023 3021 3020 3016 3013 3008 3005 3001 3004 3004 3006 3007 3010 3010 3003 3001 2997 3000 2997 2999 3006 3007 3008 3008 3007 3007
3073 3068 3066 3062 3059 3057 3055 3052 3049 3047 3045 3044 3040 3038 3035 3032 3030 3029 3025 3022 3019 3017 3015 3012 3010 3008 3005 3004 3001 3002 3002 3003 3003 3002 2995 2992 2989 2990 2996 2998 3002 3004 3004 3003 3002
3069 3066 3063 3060 3059 3054 3051 3048 3046 3044 3043 3040 3038 3035 3032 3030 3026 3025 3021 3020 3018 3015 3012 3011 3008 3005 3002 3001 3001 3001 3001 3001 2998 2998 3000 3001 2993 2988 2991 2994 2997 2999 2999 2997 2997
3066 3063 3060 3057 3056 3052 3048 3044 3042 3040 3039 3037 3035 3033 3030 3027 3025 3019 3017 3016 3015 3013 3012 3009 3007 3004 2999 2998 2996 2997 2998 2998 2998 2999 2997 2998 2990 2987 2989 2992 2993 2994 2994 2993 2993
3063 3060 3057 3054 3051 3049 3044 3042 3040 3038 3035 3034 3031 3029 3026 3023 3021 3016 3012 3010 3009 3009 3007 3006 3004 3004 3001 2999 2999 2997 2995 2996 2996 2995 2995 2994 2987 2984 2987 2986 2988 2991 2991 2991 2992
3061 3059 3055 3053 3048 3045 3041 3039 3037 3035 3033 3031 3027 3026 3023 3017 3014 3010 3006 3004 3003 3002 3002 3001 2997 2998 2996 2995 2995 2993 2990 2990 2991 2993 2991 2993 2984 2983 2985 2983 2984 2988 2990 2991 2991
3059 3055 3052 3049 3046 3042 3039 3037 3034 3033 3030 3027 3024 3021 3018 3013 3011 3000 2999 2995 2993 2993 2992 2992 2990 2991 2992 2990 2989 2986 2984 2983 2983 2984 2985 2987 2975 2981 2981 2984 2984 2987 2989 2989 2990
3055 3052 3048 3046 3042 3039 3037 3034 3033 3029 3026 3023 3019 3015 3012 3008 3002 2994 2990 2985 2984 2984 2986 2986 2985 2987 2985 2986 2985 2980 2973 2972 2974 2975 2977 2976 2973 2978 2979 2981 2983 2983 2985 2986 2988